User: anonymous   Login
Location: Unspecified
(0.0000°N, 0.0000°E)
Time: 05:02:52
(UTC+02:00)
Language:

Cosmos 773 Rocket - Orbit

View from above orbital plane
View from above orbital plane
View from above satellite
View from above satellite

Ground track
Ground track

The orbit data is extracted from the following two-line orbital elements,

1 08344U 75094B   14295.51378707  .00000491  00000-0  16792-3 0  5991
2 08344 074.0567 110.2877 0022856 255.5999 162.9975 14.38810361 46366
Epoch (UTC): 22 October 2014 12:19:51
Eccentricity: 0.0022856
inclination: 74.0567°
perigee height: 746 km
apogee height: 779 km
right ascension of ascending node: 110.2877°
argument of perigee: 255.5999°
revolutions per day: 14.38810361
mean anomaly at epoch: 162.9975°
orbit number at epoch: 4636

The dashed part of the orbit path shows where the satellite is in the earth's shadow,  

DLR